When you browse on this site, cookies collect data to enhance your experience and personalize the content and advertising you see.
Visit our Privacy Policy to learn more. By continuing to use the site, you agree to this use of cookies and data.
  • In United Kingdom
  • List of Countries
  • For 7 days
  • Water Temperature
  • Satellite Maps
  • Weather Map
  • Weather Widgets
  • user-avatar
    Login

    Hourly Weather Ohiivtsi

    Today, 21 June, Friday

    Time Temperature Precipitation Wind Pressure Humidity
    00:00 +20°C° 0 mm 2 mps 733 mmHg 92%
    01:00 +20°C° 0 mm 2 mps 733 mmHg 92%
    02:00 +19°C° 0 mm 2 mps 733 mmHg 92%
    03:00 +19°C° 0 mm 2 mps 733 mmHg 92%
    04:00 +19°C° 0 mm 2 mps 733 mmHg 92%
    05:00 +19°C° 0 mm 2 mps 733 mmHg 93%
    06:00 +21°C° 0 mm 2 mps 734 mmHg 89%
    07:00 +23°C° 0 mm 2 mps 734 mmHg 86%
    08:00 +25°C° 0 mm 2 mps 734 mmHg 83%
    09:00 +26°C° 0.4 mm 2 mps 734 mmHg 79%
    10:00 +27°C° 0.4 mm 3 mps 734 mmHg 75%
    11:00 +28°C° 0.4 mm 3 mps 734 mmHg 71%
    12:00 +28°C° 0.2 mm 3 mps 734 mmHg 70%
    13:00 +28°C° 0.2 mm 3 mps 734 mmHg 68%
    14:00 +29°C° 0.2 mm 4 mps 734 mmHg 67%
    15:00 +29°C° 0 mm 3 mps 734 mmHg 68%
    16:00 +28°C° 0 mm 3 mps 733 mmHg 70%
    17:00 +28°C° 0 mm 2 mps 733 mmHg 71%
    18:00 +27°C° 0.3 mm 2 mps 733 mmHg 76%
    19:00 +25°C° 0.3 mm 2 mps 733 mmHg 80%
    20:00 +23°C° 0.3 mm 2 mps 733 mmHg 84%
    21:00 +23°C° 0 mm 2 mps 734 mmHg 85%
    22:00 +21°C° 0 mm 2 mps 734 mmHg 86%
    23:00 +20°C° 0 mm 2 mps 734 mmHg 86%

    Tomorrow, 22 June, Saturday

    Time Temperature Precipitation Wind Pressure Humidity
    00:00 +20°C° 0 mm 2 mps 734 mmHg 87%
    01:00 +20°C° 0 mm 2 mps 734 mmHg 87%
    02:00 +19°C° 0 mm 2 mps 734 mmHg 87%
    03:00 +19°C° 0 mm 2 mps 734 mmHg 87%
    04:00 +19°C° 0 mm 2 mps 734 mmHg 87%
    05:00 +19°C° 0 mm 2 mps 734 mmHg 88%
    06:00 +20°C° 0 mm 2 mps 734 mmHg 84%
    07:00 +23°C° 0 mm 2 mps 735 mmHg 81%
    08:00 +24°C° 0 mm 2 mps 735 mmHg 78%
    09:00 +26°C° 0.2 mm 2 mps 735 mmHg 74%
    10:00 +27°C° 0.2 mm 2 mps 735 mmHg 70%
    11:00 +28°C° 0.2 mm 3 mps 735 mmHg 66%
    12:00 +28°C° 0.4 mm 2 mps 735 mmHg 65%
    13:00 +28°C° 0.4 mm 2 mps 735 mmHg 64%
    14:00 +29°C° 0.4 mm 2 mps 735 mmHg 62%
    15:00 +28°C° 0.5 mm 2 mps 735 mmHg 66%
    16:00 +28°C° 0.5 mm 2 mps 735 mmHg 70%
    17:00 +27°C° 0.5 mm 2 mps 734 mmHg 74%
    18:00 +26°C° 0.5 mm 2 mps 734 mmHg 75%
    19:00 +25°C° 0.5 mm 1 mps 735 mmHg 76%
    20:00 +24°C° 0.5 mm 1 mps 735 mmHg 78%
    21:00 +23°C° 1 mm 1 mps 735 mmHg 81%
    22:00 +22°C° 1 mm 1 mps 735 mmHg 84%
    23:00 +22°C° 1 mm 1 mps 735 mmHg 88%

    Day after tomorrow, 23 June, Sunday

    Time Temperature Precipitation Wind Pressure Humidity
    00:00 +20°C° 0.2 mm 2 mps 735 mmHg 88%
    01:00 +20°C° 0.2 mm 2 mps 735 mmHg 89%
    02:00 +19°C° 0.2 mm 2 mps 735 mmHg 89%
    03:00 +19°C° 0.2 mm 2 mps 734 mmHg 90%
    04:00 +19°C° 0.2 mm 2 mps 734 mmHg 90%
    05:00 +18°C° 0.2 mm 2 mps 734 mmHg 91%
    06:00 +20°C° 0.1 mm 2 mps 735 mmHg 88%
    07:00 +21°C° 0.1 mm 2 mps 735 mmHg 85%
    08:00 +24°C° 0.1 mm 2 mps 735 mmHg 82%
    09:00 +25°C° 1 mm 2 mps 735 mmHg 76%
    10:00 +26°C° 1 mm 2 mps 735 mmHg 71%
    11:00 +28°C° 1 mm 2 mps 735 mmHg 65%
    12:00 +28°C° 0.7 mm 2 mps 735 mmHg 66%
    13:00 +28°C° 0.7 mm 3 mps 735 mmHg 66%
    14:00 +28°C° 0.7 mm 3 mps 735 mmHg 66%
    15:00 +28°C° 1.8 mm 3 mps 735 mmHg 71%
    16:00 +27°C° 1.8 mm 2 mps 735 mmHg 76%
    17:00 +26°C° 1.8 mm 2 mps 735 mmHg 80%
    18:00 +25°C° 0.3 mm 2 mps 735 mmHg 82%
    19:00 +24°C° 0.3 mm 2 mps 735 mmHg 83%
    20:00 +23°C° 0.3 mm 2 mps 735 mmHg 85%
    21:00 +21°C° 0 mm 2 mps 736 mmHg 87%
    22:00 +21°C° 0 mm 2 mps 736 mmHg 88%
    23:00 +20°C° 0 mm 2 mps 736 mmHg 90%

    24 June, Monday

    Time Temperature Precipitation Wind Pressure Humidity
    00:00 +20°C° 0.1 mm 2 mps 736 mmHg 90%
    01:00 +19°C° 0.1 mm 2 mps 736 mmHg 90%
    02:00 +19°C° 0.1 mm 2 mps 737 mmHg 90%
    03:00 +19°C° 0.1 mm 2 mps 737 mmHg 90%
    04:00 +19°C° 0.1 mm 2 mps 737 mmHg 91%
    05:00 +19°C° 0.1 mm 2 mps 737 mmHg 92%
    06:00 +20°C° 0 mm 2 mps 737 mmHg 88%
    07:00 +21°C° 0 mm 2 mps 738 mmHg 85%
    08:00 +24°C° 0 mm 2 mps 738 mmHg 82%
    09:00 +25°C° 0 mm 3 mps 738 mmHg 75%
    10:00 +26°C° 0 mm 3 mps 739 mmHg 69%
    11:00 +28°C° 0 mm 3 mps 739 mmHg 63%
    12:00 +28°C° 0 mm 3 mps 739 mmHg 62%
    13:00 +28°C° 0 mm 3 mps 739 mmHg 62%
    14:00 +29°C° 0 mm 3 mps 739 mmHg 61%
    15:00 +28°C° 0.2 mm 4 mps 739 mmHg 67%
    16:00 +27°C° 0.2 mm 4 mps 739 mmHg 72%
    17:00 +27°C° 0.2 mm 4 mps 739 mmHg 77%
    18:00 +26°C° 0.1 mm 3 mps 739 mmHg 81%
    19:00 +24°C° 0.1 mm 3 mps 739 mmHg 86%
    20:00 +22°C° 0.1 mm 3 mps 739 mmHg 90%
    21:00 +21°C° 0 mm 3 mps 740 mmHg 92%
    22:00 +21°C° 0 mm 3 mps 740 mmHg 93%
    23:00 +20°C° 0 mm 3 mps 740 mmHg 95%

    25 June, Tuesday

    Time Temperature Precipitation Wind Pressure Humidity
    00:00 +20°C° 0 mm 3 mps 740 mmHg 95%
    01:00 +19°C° 0 mm 3 mps 741 mmHg 96%
    02:00 +19°C° 0 mm 3 mps 741 mmHg 97%
    03:00 +19°C° 0 mm 3 mps 741 mmHg 97%
    04:00 +18°C° 0 mm 3 mps 741 mmHg 97%
    05:00 +18°C° 0 mm 3 mps 741 mmHg 97%
    06:00 +19°C° 0 mm 3 mps 741 mmHg 95%
    07:00 +20°C° 0 mm 3 mps 741 mmHg 93%
    08:00 +21°C° 0 mm 3 mps 742 mmHg 90%
    09:00 +22°C° 0 mm 4 mps 742 mmHg 86%
    10:00 +23°C° 0 mm 4 mps 742 mmHg 82%
    11:00 +25°C° 0 mm 4 mps 742 mmHg 78%
    12:00 +26°C° 0.2 mm 4 mps 742 mmHg 76%
    13:00 +26°C° 0.2 mm 5 mps 742 mmHg 75%
    14:00 +26°C° 0.2 mm 5 mps 742 mmHg 73%
    15:00 +26°C° 0.1 mm 4 mps 742 mmHg 72%
    16:00 +26°C° 0.1 mm 4 mps 741 mmHg 72%
    17:00 +25°C° 0.1 mm 4 mps 741 mmHg 72%
    18:00 +24°C° 0 mm 3 mps 741 mmHg 75%
    19:00 +21°C° 0 mm 3 mps 741 mmHg 78%
    20:00 +20°C° 0 mm 2 mps 741 mmHg 82%
    21:00 +19°C° 0 mm 2 mps 741 mmHg 82%
    22:00 +19°C° 0 mm 1 mps 741 mmHg 83%
    23:00 +18°C° 0 mm 1 mps 741 mmHg 84%

    26 June, Wednesday

    Time Temperature Precipitation Wind Pressure Humidity
    00:00 +16°C° 0 mm 1 mps 741 mmHg 84%
    01:00 +16°C° 0 mm 1 mps 741 mmHg 85%
    02:00 +14°C° 0 mm 0 mps 741 mmHg 86%
    03:00 +14°C° 0 mm 0 mps 740 mmHg 86%
    04:00 +14°C° 0 mm 0 mps 740 mmHg 85%
    05:00 +15°C° 0 mm 0 mps 740 mmHg 85%
    06:00 +16°C° 0 mm 0 mps 740 mmHg 81%
    07:00 +20°C° 0 mm 1 mps 740 mmHg 77%
    08:00 +22°C° 0 mm 1 mps 740 mmHg 73%
    09:00 +23°C° 0 mm 1 mps 740 mmHg 70%
    10:00 +24°C° 0 mm 2 mps 740 mmHg 66%
    11:00 +25°C° 0 mm 2 mps 740 mmHg 63%
    12:00 +25°C° 0.1 mm 2 mps 739 mmHg 63%
    13:00 +25°C° 0.1 mm 3 mps 739 mmHg 63%
    14:00 +25°C° 0.1 mm 3 mps 739 mmHg 63%
    15:00 +25°C° 0.1 mm 3 mps 738 mmHg 65%
    16:00 +25°C° 0.1 mm 3 mps 738 mmHg 67%
    17:00 +25°C° 0.1 mm 3 mps 738 mmHg 69%
    18:00 +22°C° 0 mm 3 mps 738 mmHg 75%
    19:00 +20°C° 0 mm 3 mps 737 mmHg 82%
    20:00 +18°C° 0 mm 2 mps 737 mmHg 88%
    21:00 +18°C° 0 mm 2 mps 737 mmHg 87%
    22:00 +17°C° 0 mm 3 mps 737 mmHg 86%
    23:00 +16°C° 0 mm 3 mps 737 mmHg 84%
    Show more